SWOT
Last updated on Sun Jun 21 2026 00:02:53 GMT+0000 (Coordinated Universal Time)
1 54754U 22173A 26171.41805959 .00000075 00000+0 52339-4 0 9995
2 54754 77.6105 30.9486 0000286 91.4251 268.6933 14.00169969179606
Next 0 passes for location: London (51.5072 / 0.1276)
No passes found over London.